Flag for USA

Past Weather in Syracuse, New York, USA — Yesterday and Last 2 Weeks

Now
92 °F

Broken clouds.


Feels Like: 93 °F
Forecast: 92 / 74 °F
Wind: 12 mph from East

Location: Syracuse Hancock International Airport

Current Time: Jul 10, 2020 at 3:20:00 pm

Latest Report: Jul 10, 2020 at 1:54 pm


Visibility: 10 mi

Pressure: 29.85 "Hg

Humidity: 40%

Dew Point: 64 °F

Location of SyracuseLocation

Past Weather in Syracuse — Graph

°F

Syracuse Temperature Yesterday

Maximum temperature yesterday: 96 °F (at 2:54 pm)
Minimum temperature yesterday: 70 °F (at 3:54 am)
Average temperature yesterday: 83 °F

High & Low Weather Summary for the Past Weeks

 TemperatureHumidityPressure
High96 °F (Jul 9, 2:54 pm)97% (Jul 1, 6:54 am)30.04 "Hg (Jul 1, 6:54 am)
Low59 °F (Jul 5, 5:54 am)24% (Jun 26, 2:54 pm)29.67 "Hg (Jun 27, 5:54 pm)
Average76 °F64%29.89 "Hg
* Reported Jun 25 1:54 pm — Jul 10 1:54 pm, Syracuse. Weather by CustomWeather, © 2020

Note: Actual official high and low records may vary slightly from our data, if they occured in-between our weather recording intervals... More about our weather records

Syracuse Weather History for the Previous 24 Hours

Scroll right to see more
 ConditionsComfort  
Time TempWeatherWind HumidityBarometerVisibility
1:54 pm
Fri, Jul 10
92 °FBroken clouds.12 mph40%29.85 "Hg10 mi
12:54 pm89 °FBroken clouds.10 mph46%29.87 "Hg10 mi
11:54 am87 °FBroken clouds.7 mph59%29.89 "Hg10 mi
10:54 am89 °FPartly sunny.9 mph50%29.88 "Hg10 mi
9:54 am86 °FScattered clouds.7 mph59%29.90 "Hg10 mi
8:54 am83 °FScattered clouds.8 mph63%29.92 "Hg10 mi
7:54 am80 °FPassing clouds.8 mph69%29.92 "Hg10 mi
6:54 am78 °FPassing clouds.7 mph74%29.92 "Hg10 mi
5:54 am76 °FPassing clouds.6 mph80%29.91 "Hg10 mi
4:54 am76 °FPassing clouds.5 mph80%29.91 "Hg10 mi
3:54 am77 °FPassing clouds.7 mph77%29.91 "Hg10 mi
2:54 am78 °FPassing clouds.5 mph74%29.92 "Hg10 mi
1:54 am79 °FPassing clouds.No wind72%29.92 "Hg10 mi
12:54 am80 °FPassing clouds.6 mph69%29.91 "Hg10 mi
11:54 pm
Thu, Jul 9
80 °FPassing clouds.8 mph67%29.90 "Hg10 mi
10:54 pm82 °FPassing clouds.6 mph58%29.90 "Hg10 mi
9:54 pm83 °FPassing clouds.6 mph57%29.90 "Hg10 mi
8:54 pm85 °FPassing clouds.7 mph51%29.88 "Hg10 mi
7:54 pm91 °FPassing clouds.7 mph39%29.88 "Hg10 mi
6:54 pm94 °FPassing clouds.7 mph36%29.88 "Hg10 mi
5:54 pm95 °FPassing clouds.No wind36%29.88 "Hg10 mi
4:54 pm96 °FPassing clouds.5 mph32%29.88 "Hg10 mi
3:54 pm95 °FPassing clouds.5 mph35%29.90 "Hg10 mi
Weather by CustomWeather, © 2020

See weather overview